SCP
0 0 0 0 0 0 0 0 0 0 0 0 0 0 0 0 0 0 0 0 0 0 0 0 0 0 0 0 0 0 0 0 0 0 0 0 0 0 0 0 0 0 0 0
0 0 0 0 0 0 0 0 0 0 0 0 0 0 0 0 0 0 0 0 0 0 0 0 0 0 0 0 0 0 0 0 0 0 0 0 0 0 0 0 0 0 0 0
0 0 0 0 0 0 0 0 0 0 0 0 0 0 0 0 0 0 0 0 0 0 0 0 0 0 0 0 0 0 0 0 0 0 0 0 0 0 0 0 0 0 0 0
0 0 0 0 0 0 0 0 0 0 0 0 0 0 0 0 0 0 0 0 0 0 0 0 0 0 0 0 0 0 0 0 0 0 0 0 0 0 0 0 0 0 0 0
0 0 0 0 0 0 0 0 0 0 0 0 0 0 0 0 0 0 0 0 0 0 0 0 0 0 0 0 0 0 0 0 0 0 0 0 0 0 0 0 0 0 0 0
0 0 0 0 0 0 0 0 0 0 0 0 0 0 0 0 0 0 0 0 0 0 0 0 0 0 0 0 0 0 0 0 0 0 0 0 0 0 0 0 0 0 0 0
0 0 0 0 0 0 0 0 0 0 0 0 0 0 0 0 0 0 0 0 0 0 0 0 0 0 0 0 0 0 0 0 0 0 0 0 0 0 0 0 0 0 0 0
0 0 0 0 0 0 0 0 0 0 0 0 0 0 0 0 0 0 0 0 0 0 0 0 0 0 0 0 0 0 0 0 0 0 0 0 0 0 0 0 0 0 0 0
0 0 0 0 0 0 0 0 0 0 0 0 0 0 0 0 0 0 0 0 0 0 0 0 0 0 0 0 0 0 0 0 0 0 0 0 0 0 0 0 0 0 0 0
0 0 0 0 0 0 0 0 0 0 0 0 0 0 0 0 0 0 0 0 0 0 0 0 0 0 0 0 0 0 0 0 0 0 0 0 0 0 0 0 0 0 0 -0
0 0 0 0 0 0 0 0 0 0 0 0 0 0 0 0 0 0 0 0 0 0 0 0 0 0 0 0 0 0 0 0 0 0 0 0 0 0 0 0 0 0 0 0
0 0 0 0 0 0 0 0 0 0 0 0 0 0 0 0 0 0 0 0 0 0 0 0 0 0 0 0 0 0 0 0 0 0 0 0 0 0 0 0 0 0 0 0
0 0 0 0 0 0 0 0 0 0 0 0 0 0 0 0 0 0 0 0 0 0 0 0 0 0 0 0 0 0 0 0 0 0 0 0 0 0 0 0 0 0 0 0
0 0 0 0 0 0 0 0 0 0 0 -0 0 0 0 0 0 0 0 0 0 0 0 0 0 0 0 0 0 0 0 0 0 0 0 0 0 0 0 0 0 0 0 0
0 0 0 0 0 0 0 0 0 0 0 0 0 0 0 0 0 0 0 0 0 0 0 0 0 0 0 0 0 0 0 0 0 0 0 0 0 0 0 0 0 0 0 0
0 0 0 0 0 0 0 0 0 0 0 0 0 0 0 0 0 0 0 0 0 0 0 0 0 0 0 0 0 0 0 0 0 0 0 0 0 0 0 0 0 0 0 0
0 0 0 0 0 0 0 0 0 0 0 0 0 0 0 0 0 0 0 0 0 0 0 0 0 0 0 0 0 0 0 0 0 0 0 0 0 0 0 0 0 0 0 0
0 0 0 0 0 0 0 0 0 0 0 0 0 0 0 0 0 0 0 0 0 0 0 0 0 0 0 0 0 0 0 0 0 0 0 0 0 0 0 0 0 0 0 0
0 0 0 0 0 0 0 0 0 -0 0 0 0 0 0 0 0 0 0 0 0 0 0 0 0 0 0 0 0 0 0 0 0 0 0 0 0 0 0 0 0 0 0 0
0 0 0 0 0 0 0 0 0 0 0 0 0 0 0 0 0 0 0 0 0 0 0 0 0 0 0 0 0 0 0 0 0 0 0 0 0 0 0 0 0 0 0 0
0 0 0 0 0 0 0 0 0 0 0 0 0 0 0 0 0 0 0 0 0 0 0 0 0 0 0 0 0 0 0 0 0 0 0 0 0 0 0 0 0 0 0 0
0 0 0 0 0 0 0 0 0 0 0 0 0 0 0 0 0 0 0 0 0 0 0 0 0 0 0 0 0 0 0 0 0 0 0 0 0 0 0 0 0 0 0 0
0 0 0 0 0 0 0 0 0 0 -0 0 0 0 0 0 0 0 0 0 0 0 0 0 0 0 0 0 0 0 0 0 0 0 0 0 0 0 0 0 0 0 0 0
0 0 0 0 0 0 0 0 0 0 0 -0 0 0 0 0 0 0 0 0 0 0 0 0 0 0 0 0 0 0 0 0 0 0 0 0 0 0 0 0 0 0 0 0
0 0 0 0 0 0 0 -0 -0 -0 -0 -0 0 0 0 0 0 0 0 0 0 0 0 0 0 0 0 0 0 0 0 0 0 0 0 0 0 0 0 0 0 0 0 0
0 0 0 0 0 0 -0 -0 -0 -0 -0 -0 0 0 0 0 0 0 0 0 0 0 0 0 0 0 0 0 0 0 0 0 0 0 0 0 0 0 0 0 0 0 0 0
0 0 0 0 0 0 -0 -0 -0 -0 -0 -0 0 0 0 0 0 0 0 0 0 0 0 0 0 0 0 0 0 0 0 0 0 0 0 0 0 0 0 0 0 0 0 0
Wind_Speed_500mb
74 69 66 57 52 43 31 14 4 10 22 6 6 5 6 7 5 11 3 2 3 14 13 10 6 11 5 20 25 12 8 6 5 8 8 8 5 4 11 7 9 7 2 19
75 75 82 75 72 67 54 16 15 17 35 7 6 5 7 9 9 8 9 9 9 5 12 2 9 4 6 22 14 9 12 4 3 6 6 7 5 9 7 6 3 12 9 15
73 78 76 90 92 82 70 23 5 11 30 14 8 9 9 9 18 6 8 4 8 5 8 8 5 6 3 17 9 8 14 2 11 11 8 7 6 9 13 12 7 8 33 38
82 78 68 76 86 91 85 34 17 23 11 17 22 16 15 10 12 13 18 7 14 14 9 9 11 11 7 6 10 8 7 9 4 10 10 10 14 17 25 35 43 17 40 28
69 96 76 78 92 93 93 37 19 18 9 17 39 24 17 24 11 20 12 12 22 18 15 18 16 16 11 12 18 12 7 4 5 9 15 12 14 34 36 49 48 46 57 60
74 43 45 77 91 120 67 64 40 21 25 16 16 18 21 38 27 31 28 41 12 27 35 19 6 3 10 25 21 19 13 9 5 10 6 12 17 30 42 20 20 50 37 59
92 99 92 60 93 133 118 82 60 23 15 23 27 21 42 39 46 34 14 32 22 13 20 29 6 2 4 11 23 29 14 10 6 7 6 7 12 10 14 33 32 49 31 41
70 80 84 84 82 116 139 90 77 42 12 43 32 37 26 35 48 22 27 25 22 38 26 7 4 3 8 8 11 18 16 9 4 5 7 20 20 8 15 17 21 46 51 51
68 78 76 77 79 49 163 114 111 66 24 32 72 37 64 24 21 8 10 18 53 37 11 6 15 14 10 7 8 12 2 1 6 6 8 15 8 5 12 11 21 31 56 43
66 72 60 68 73 93 54 111 92 92 37 37 66 28 35 42 29 7 20 31 17 26 9 9 11 11 5 12 20 13 7 2 25 14 10 20 21 24 20 9 15 2 53 53
59 65 69 63 66 71 54 58 91 108 42 63 69 85 51 41 57 15 32 18 9 6 11 11 11 12 16 7 18 19 24 25 11 10 10 28 37 20 17 15 8 25 44 48
65 62 60 69 68 69 67 66 58 63 71 43 60 92 103 98 89 73 68 22 27 38 11 11 8 9 7 12 13 15 11 18 18 30 22 8 80 32 70 20 16 26 39 42
65 62 57 59 60 65 44 45 52 64 56 54 65 82 102 101 101 84 42 30 36 36 28 16 7 9 10 14 17 6 13 32 9 6 20 34 60 77 73 50 56 53 43 39
65 63 61 57 58 58 59 48 46 43 20 13 33 59 95 78 103 98 91 77 68 53 45 13 7 8 27 10 6 16 17 31 21 20 31 32 45 72 98 89 81 83 85 87
64 65 61 50 54 56 61 60 60 65 35 6 10 23 46 68 87 104 96 78 62 53 20 8 10 11 10 2 4 11 25 16 21 22 24 44 40 63 70 75 76 70 73 67
65 63 58 50 48 51 43 36 55 66 62 14 9 23 39 47 82 97 99 91 67 46 28 11 16 21 24 11 12 37 66 77 83 46 46 51 59 41 52 58 64 60 55 52
62 60 50 53 53 50 56 20 21 23 26 27 7 8 35 63 71 69 64 76 53 42 25 22 20 17 31 5 13 66 62 83 94 92 79 68 87 66 72 68 67 58 62 60
48 47 44 43 48 50 57 70 77 66 26 19 10 7 12 59 24 20 45 25 31 27 18 21 9 26 13 10 57 128 67 66 69 78 85 96 87 71 76 72 65 72 68 70
42 40 37 32 35 34 61 58 60 56 42 11 7 19 16 53 20 21 19 21 7 17 10 9 25 10 13 40 56 75 71 72 58 63 75 84 91 93 89 85 81 85 83 78
37 37 18 8 21 42 32 36 18 24 30 28 12 24 7 45 22 9 13 19 9 11 11 28 10 13 77 66 103 81 48 51 74 71 64 79 82 90 90 90 82 85 82 78
28 10 11 12 15 15 17 14 13 18 10 20 31 47 9 27 20 14 23 10 12 13 11 19 11 8 47 113 123 99 82 69 68 73 76 77 78 82 78 79 76 74 68 66
13 11 6 9 11 9 9 9 7 7 10 13 18 21 30 11 14 8 14 12 13 14 26 13 10 20 92 90 82 73 76 80 93 96 101 107 100 98 93 88 82 76 69 63
11 5 4 5 9 12 8 9 8 5 11 31 31 22 35 22 21 5 12 15 10 19 14 11 10 35 21 33 42 48 42 48 64 78 80 83 83 80 77 71 61 63 62 54
8 9 6 7 6 7 5 2 4 9 23 30 39 16 14 21 12 5 12 8 10 11 17 14 6 18 18 4 4 12 28 46 50 54 55 60 59 57 51 51 44 47 54 43
6 6 8 9 16 21 16 14 8 22 36 44 31 24 16 10 8 9 5 11 10 11 10 5 20 28 27 25 10 5 15 18 21 25 29 33 37 41 43 36 33 34 36 38
13 8 6 17 4 9 15 33 11 34 46 25 11 10 10 12 10 10 15 18 12 5 8 29 39 37 33 37 27 16 27 30 27 28 31 34 35 37 37 33 33 32 28 32
5 5 19 12 11 10 11 24 29 39 23 3 1 10 7 15 10 12 13 11 9 30 42 42 41 48 50 44 33 27 34 34 30 31 31 36 35 30 33 32 30 28 31 34
Wind_Direction_500mb
259 250 251 251 248 238 232 222 226 218 173 127 156 196 207 316 191 189 169 267 276 189 170 187 234 217 173 165 158 159 204 134 219 202 80 47 352 226 173 143 234 242 284 267
253 251 247 245 242 241 218 202 208 192 178 181 210 233 220 209 199 214 178 204 225 27 171 205 185 185 75 173 178 165 193 225 356 303 11 13 220 205 231 63 72 213 159 261
251 253 250 251 240 236 219 180 168 178 201 215 194 170 225 203 193 214 200 175 95 123 211 215 206 207 150 191 182 136 163 221 195 205 186 122 192 221 212 154 185 202 226 275
259 251 256 260 250 242 210 197 216 184 181 218 200 186 163 166 191 209 194 209 209 165 177 189 206 193 118 178 184 179 140 203 208 280 261 206 204 219 198 210 219 211 258 261
249 250 260 252 246 237 204 200 179 187 189 162 184 190 208 181 164 152 218 219 190 186 184 183 185 164 164 191 175 170 171 247 80 281 258 243 250 249 234 230 237 246 256 270
253 244 242 257 252 217 203 210 210 191 183 165 165 198 194 205 170 212 203 199 153 198 220 164 153 108 174 163 161 178 156 143 113 262 336 312 283 236 228 208 217 223 235 241
255 255 259 248 245 231 218 220 204 191 213 193 201 177 198 208 199 214 192 181 172 156 159 163 144 59 354 207 183 169 154 150 156 265 1 262 241 197 186 209 240 222 243 249
252 256 258 257 256 228 223 224 204 207 219 202 212 215 197 219 223 194 173 187 194 165 127 82 94 350 12 259 208 190 155 153 216 200 221 299 288 196 170 174 261 222 226 248
254 248 248 246 241 245 219 222 229 215 223 210 215 204 203 197 192 135 136 164 155 157 93 147 183 211 200 240 322 347 168 222 157 117 200 243 237 124 143 120 286 225 199 229
259 256 259 248 242 238 242 231 236 217 221 221 203 197 193 190 163 155 133 151 172 169 162 170 179 203 184 183 177 169 145 239 215 207 247 275 247 154 143 101 245 204 189 212
267 262 257 255 258 243 240 243 239 226 237 230 212 205 185 174 184 167 144 119 175 163 184 189 184 205 198 185 161 175 167 171 186 187 215 270 159 126 188 214 234 216 197 205
264 261 256 251 255 257 257 258 236 237 228 236 238 231 229 224 226 203 169 191 158 170 172 194 165 192 168 171 230 172 214 195 179 196 210 211 179 207 215 224 238 223 221 221
268 263 261 253 251 251 247 265 253 253 254 259 238 229 234 229 230 227 182 216 187 192 157 141 192 208 157 179 235 136 235 220 227 104 221 234 210 230 242 243 247 255 250 246
266 267 258 256 260 261 252 257 261 245 229 228 248 251 233 234 219 221 218 225 198 195 169 155 159 198 190 206 244 205 194 162 199 256 262 289 255 242 253 254 258 261 264 262
264 264 258 252 255 256 263 260 262 236 243 267 216 233 244 229 223 220 218 217 188 169 168 185 190 184 157 188 58 248 192 179 195 229 184 213 243 253 262 255 259 268 269 268
258 259 255 251 255 258 264 274 273 253 232 263 241 241 232 225 220 219 214 212 191 183 168 189 197 190 181 168 202 246 226 221 221 232 238 249 257 253 255 264 267 269 263 263
250 249 248 251 252 245 239 223 185 112 226 239 238 238 203 214 203 209 208 199 198 198 192 191 159 171 183 211 226 250 228 231 231 237 242 252 249 253 264 266 271 270 266 268
241 243 248 250 243 245 249 252 243 258 287 252 209 218 165 183 174 164 192 186 199 204 194 165 158 137 186 228 239 248 243 242 242 236 239 244 258 258 261 263 264 264 263 270
248 243 246 241 242 249 252 263 259 263 229 282 259 173 190 175 158 157 138 151 177 196 207 187 150 156 200 226 243 249 243 232 240 244 243 250 251 256 259 261 265 266 267 271
242 234 191 176 234 265 247 248 221 208 222 207 265 303 185 174 155 154 129 159 192 191 208 152 215 220 236 241 239 243 244 237 236 237 236 242 243 250 258 261 268 269 274 276
192 140 156 220 258 252 206 210 223 193 196 200 225 230 246 197 175 163 193 161 164 195 182 181 196 235 236 239 241 241 245 245 242 244 247 255 262 266 266 271 272 274 273 274
127 139 203 258 215 246 245 187 253 211 209 203 206 204 185 227 176 146 173 187 178 200 145 183 192 239 237 242 245 249 242 242 247 250 256 260 260 264 268 270 272 273 278 280
148 151 220 243 189 222 228 204 258 180 360 17 333 217 173 181 238 181 172 187 188 131 170 188 214 249 264 265 263 257 247 244 253 255 260 264 266 269 268 271 278 280 277 278
166 162 247 186 248 247 237 90 15 15 350 354 339 311 211 172 191 187 172 151 136 185 175 201 225 28 352 324 72 213 224 234 242 251 261 268 271 272 275 275 277 273 272 269
198 195 214 222 234 273 296 2 40 6 345 338 333 287 241 170 169 176 172 168 190 187 176 169 13 5 353 344 359 324 283 251 251 265 275 273 273 271 270 268 269 264 261 255
194 225 307 325 24 318 41 9 31 348 345 349 310 272 249 207 156 168 188 170 184 174 12 349 347 344 345 340 342 338 303 295 282 282 287 289 276 276 268 259 252 243 240 241
236 128 49 23 54 35 58 13 349 344 334 70 298 294 343 299 318 129 16 22 4 328 327 333 333 332 331 331 336 336 311 300 293 290 285 284 280 264 258 241 227 220 217 218
Wind_Speed_850mb
74 69 66 57 52 43 31 14 4 10 22 6 6 5 6 7 5 11 3 2 3 14 13 10 6 11 5 20 25 12 8 6 5 8 8 8 5 4 11 7 9 7 2 19
75 75 82 75 72 67 54 16 15 17 35 7 6 5 7 9 9 8 9 9 9 5 12 2 9 4 6 22 14 9 12 4 3 6 6 7 5 9 7 6 3 12 9 15
73 78 76 90 92 82 70 23 5 11 30 14 8 9 9 9 18 6 8 4 8 5 8 8 5 6 3 17 9 8 14 2 11 11 8 7 6 9 13 12 7 8 33 38
82 78 68 76 86 91 85 34 17 23 11 17 22 16 15 10 12 13 18 7 14 14 9 9 11 11 7 6 10 8 7 9 4 10 10 10 14 17 25 35 43 17 40 28
69 96 76 78 92 93 93 37 19 18 9 17 39 24 17 24 11 20 12 12 22 18 15 18 16 16 11 12 18 12 7 4 5 9 15 12 14 34 36 49 48 46 57 60
74 43 45 77 91 120 67 64 40 21 25 16 16 18 21 38 27 31 28 41 12 27 35 19 6 3 10 25 21 19 13 9 5 10 6 12 17 30 42 20 20 50 37 59
92 99 92 60 93 133 118 82 60 23 15 23 27 21 42 39 46 34 14 32 22 13 20 29 6 2 4 11 23 29 14 10 6 7 6 7 12 10 14 33 32 49 31 41
70 80 84 84 82 116 139 90 77 42 12 43 32 37 26 35 48 22 27 25 22 38 26 7 4 3 8 8 11 18 16 9 4 5 7 20 20 8 15 17 21 46 51 51
68 78 76 77 79 49 163 114 111 66 24 32 72 37 64 24 21 8 10 18 53 37 11 6 15 14 10 7 8 12 2 1 6 6 8 15 8 5 12 11 21 31 56 43
66 72 60 68 73 93 54 111 92 92 37 37 66 28 35 42 29 7 20 31 17 26 9 9 11 11 5 12 20 13 7 2 25 14 10 20 21 24 20 9 15 2 53 53
59 65 69 63 66 71 54 58 91 108 42 63 69 85 51 41 57 15 32 18 9 6 11 11 11 12 16 7 18 19 24 25 11 10 10 28 37 20 17 15 8 25 44 48
65 62 60 69 68 69 67 66 58 63 71 43 60 92 103 98 89 73 68 22 27 38 11 11 8 9 7 12 13 15 11 18 18 30 22 8 80 32 70 20 16 26 39 42
65 62 57 59 60 65 44 45 52 64 56 54 65 82 102 101 101 84 42 30 36 36 28 16 7 9 10 14 17 6 13 32 9 6 20 34 60 77 73 50 56 53 43 39
65 63 61 57 58 58 59 48 46 43 20 13 33 59 95 78 103 98 91 77 68 53 45 13 7 8 27 10 6 16 17 31 21 20 31 32 45 72 98 89 81 83 85 87
64 65 61 50 54 56 61 60 60 65 35 6 10 23 46 68 87 104 96 78 62 53 20 8 10 11 10 2 4 11 25 16 21 22 24 44 40 63 70 75 76 70 73 67
65 63 58 50 48 51 43 36 55 66 62 14 9 23 39 47 82 97 99 91 67 46 28 11 16 21 24 11 12 37 66 77 83 46 46 51 59 41 52 58 64 60 55 52
62 60 50 53 53 50 56 20 21 23 26 27 7 8 35 63 71 69 64 76 53 42 25 22 20 17 31 5 13 66 62 83 94 92 79 68 87 66 72 68 67 58 62 60
48 47 44 43 48 50 57 70 77 66 26 19 10 7 12 59 24 20 45 25 31 27 18 21 9 26 13 10 57 128 67 66 69 78 85 96 87 71 76 72 65 72 68 70
42 40 37 32 35 34 61 58 60 56 42 11 7 19 16 53 20 21 19 21 7 17 10 9 25 10 13 40 56 75 71 72 58 63 75 84 91 93 89 85 81 85 83 78
37 37 18 8 21 42 32 36 18 24 30 28 12 24 7 45 22 9 13 19 9 11 11 28 10 13 77 66 103 81 48 51 74 71 64 79 82 90 90 90 82 85 82 78
28 10 11 12 15 15 17 14 13 18 10 20 31 47 9 27 20 14 23 10 12 13 11 19 11 8 47 113 123 99 82 69 68 73 76 77 78 82 78 79 76 74 68 66
13 11 6 9 11 9 9 9 7 7 10 13 18 21 30 11 14 8 14 12 13 14 26 13 10 20 92 90 82 73 76 80 93 96 101 107 100 98 93 88 82 76 69 63
11 5 4 5 9 12 8 9 8 5 11 31 31 22 35 22 21 5 12 15 10 19 14 11 10 35 21 33 42 48 42 48 64 78 80 83 83 80 77 71 61 63 62 54
8 9 6 7 6 7 5 2 4 9 23 30 39 16 14 21 12 5 12 8 10 11 17 14 6 18 18 4 4 12 28 46 50 54 55 60 59 57 51 51 44 47 54 43
6 6 8 9 16 21 16 14 8 22 36 44 31 24 16 10 8 9 5 11 10 11 10 5 20 28 27 25 10 5 15 18 21 25 29 33 37 41 43 36 33 34 36 38
13 8 6 17 4 9 15 33 11 34 46 25 11 10 10 12 10 10 15 18 12 5 8 29 39 37 33 37 27 16 27 30 27 28 31 34 35 37 37 33 33 32 28 32
5 5 19 12 11 10 11 24 29 39 23 3 1 10 7 15 10 12 13 11 9 30 42 42 41 48 50 44 33 27 34 34 30 31 31 36 35 30 33 32 30 28 31 34
Wind_Direction_850mb
259 250 251 251 248 238 232 222 226 218 173 127 156 196 207 316 191 189 169 267 276 189 170 187 234 217 173 165 158 159 204 134 219 202 80 47 352 226 173 143 234 242 284 267
253 251 247 245 242 241 218 202 208 192 178 181 210 233 220 209 199 214 178 204 225 27 171 205 185 185 75 173 178 165 193 225 356 303 11 13 220 205 231 63 72 213 159 261
251 253 250 251 240 236 219 180 168 178 201 215 194 170 225 203 193 214 200 175 95 123 211 215 206 207 150 191 182 136 163 221 195 205 186 122 192 221 212 154 185 202 226 275
259 251 256 260 250 242 210 197 216 184 181 218 200 186 163 166 191 209 194 209 209 165 177 189 206 193 118 178 184 179 140 203 208 280 261 206 204 219 198 210 219 211 258 261
249 250 260 252 246 237 204 200 179 187 189 162 184 190 208 181 164 152 218 219 190 186 184 183 185 164 164 191 175 170 171 247 80 281 258 243 250 249 234 230 237 246 256 270
253 244 242 257 252 217 203 210 210 191 183 165 165 198 194 205 170 212 203 199 153 198 220 164 153 108 174 163 161 178 156 143 113 262 336 312 283 236 228 208 217 223 235 241
255 255 259 248 245 231 218 220 204 191 213 193 201 177 198 208 199 214 192 181 172 156 159 163 144 59 354 207 183 169 154 150 156 265 1 262 241 197 186 209 240 222 243 249
252 256 258 257 256 228 223 224 204 207 219 202 212 215 197 219 223 194 173 187 194 165 127 82 94 350 12 259 208 190 155 153 216 200 221 299 288 196 170 174 261 222 226 248
254 248 248 246 241 245 219 222 229 215 223 210 215 204 203 197 192 135 136 164 155 157 93 147 183 211 200 240 322 347 168 222 157 117 200 243 237 124 143 120 286 225 199 229
259 256 259 248 242 238 242 231 236 217 221 221 203 197 193 190 163 155 133 151 172 169 162 170 179 203 184 183 177 169 145 239 215 207 247 275 247 154 143 101 245 204 189 212
267 262 257 255 258 243 240 243 239 226 237 230 212 205 185 174 184 167 144 119 175 163 184 189 184 205 198 185 161 175 167 171 186 187 215 270 159 126 188 214 234 216 197 205
264 261 256 251 255 257 257 258 236 237 228 236 238 231 229 224 226 203 169 191 158 170 172 194 165 192 168 171 230 172 214 195 179 196 210 211 179 207 215 224 238 223 221 221
268 263 261 253 251 251 247 265 253 253 254 259 238 229 234 229 230 227 182 216 187 192 157 141 192 208 157 179 235 136 235 220 227 104 221 234 210 230 242 243 247 255 250 246
266 267 258 256 260 261 252 257 261 245 229 228 248 251 233 234 219 221 218 225 198 195 169 155 159 198 190 206 244 205 194 162 199 256 262 289 255 242 253 254 258 261 264 262
264 264 258 252 255 256 263 260 262 236 243 267 216 233 244 229 223 220 218 217 188 169 168 185 190 184 157 188 58 248 192 179 195 229 184 213 243 253 262 255 259 268 269 268
258 259 255 251 255 258 264 274 273 253 232 263 241 241 232 225 220 219 214 212 191 183 168 189 197 190 181 168 202 246 226 221 221 232 238 249 257 253 255 264 267 269 263 263
250 249 248 251 252 245 239 223 185 112 226 239 238 238 203 214 203 209 208 199 198 198 192 191 159 171 183 211 226 250 228 231 231 237 242 252 249 253 264 266 271 270 266 268
241 243 248 250 243 245 249 252 243 258 287 252 209 218 165 183 174 164 192 186 199 204 194 165 158 137 186 228 239 248 243 242 242 236 239 244 258 258 261 263 264 264 263 270
248 243 246 241 242 249 252 263 259 263 229 282 259 173 190 175 158 157 138 151 177 196 207 187 150 156 200 226 243 249 243 232 240 244 243 250 251 256 259 261 265 266 267 271
242 234 191 176 234 265 247 248 221 208 222 207 265 303 185 174 155 154 129 159 192 191 208 152 215 220 236 241 239 243 244 237 236 237 236 242 243 250 258 261 268 269 274 276
192 140 156 220 258 252 206 210 223 193 196 200 225 230 246 197 175 163 193 161 164 195 182 181 196 235 236 239 241 241 245 245 242 244 247 255 262 266 266 271 272 274 273 274
127 139 203 258 215 246 245 187 253 211 209 203 206 204 185 227 176 146 173 187 178 200 145 183 192 239 237 242 245 249 242 242 247 250 256 260 260 264 268 270 272 273 278 280
148 151 220 243 189 222 228 204 258 180 360 17 333 217 173 181 238 181 172 187 188 131 170 188 214 249 264 265 263 257 247 244 253 255 260 264 266 269 268 271 278 280 277 278
166 162 247 186 248 247 237 90 15 15 350 354 339 311 211 172 191 187 172 151 136 185 175 201 225 28 352 324 72 213 224 234 242 251 261 268 271 272 275 275 277 273 272 269
198 195 214 222 234 273 296 2 40 6 345 338 333 287 241 170 169 176 172 168 190 187 176 169 13 5 353 344 359 324 283 251 251 265 275 273 273 271 270 268 269 264 261 255
194 225 307 325 24 318 41 9 31 348 345 349 310 272 249 207 156 168 188 170 184 174 12 349 347 344 345 340 342 338 303 295 282 282 287 289 276 276 268 259 252 243 240 241
236 128 49 23 54 35 58 13 349 344 334 70 298 294 343 299 318 129 16 22 4 328 327 333 333 332 331 331 336 336 311 300 293 290 285 284 280 264 258 241 227 220 217 218